Regional Weather Roundup
Issued by NWS State College, PA

Home | Current Version | Previous Version | Text Only | Print | Product List | Glossary On
Versions: 1 2 3 4 5 6 7 8 9 10 11 12 13 14 15 16 17 18 19 20 21 22 23 24 25 26 27 28 29 30 31 32 33 34 35 36 37 38 39 40 41 42 43 44 45 46 47 48 49 50
000
ASUS41 KCTP 210710
RWRCTP
REGIONAL WEATHER ROUNDUP
NATIONAL WEATHER SERVICE STATE COLLEGE PA
200 AM EST SUN JAN 21 2018

Note: "fair" indicates few or no clouds below 12,000 feet with no
significant weather and/or obstructions to visibility.

* = STATION THAT DOES NOT REPORT PRECIPITATION /E.G. RAIN...SNOW...ETC/
    THUNDER OR FOG.

PAZ002>004-007>009-013>016-020>023-029>032-210800-
WESTERN PENNSYLVANIA

CITY           SKY/WX    TMP DP  RH WIND       PRES   REMARKS
ERIE           CLOUDY    38  31  76 SW7       30.08S
MEADVILLE      CLOUDY    36  32  85 S7        30.07S
FRANKLIN*      CLOUDY    37  33  85 SW6       30.08F
NEW CASTLE     CLOUDY    38  32  79 CALM      30.11R
BEAVER COUNTY  NOT AVBL
BUTLER*        CLOUDY    38  30  73 CALM      30.11S
PITTSBURGH INT CLOUDY    42  33  70 SW7       30.10F
PITTSBURGH     CLOUDY    40  31  70 S8        30.10F
INDIANA*       CLOUDY    39  32  75 W8        30.15S
LATROBE        CLOUDY    37  34  87 SW3       30.13S
WASHINGTON CO* CLOUDY    42  35  76 SW5       30.14F
$$

PAZ004>006-010>012-017>019-024>028-033>037-041-042-045-046-049>053-210800-
CENTRAL PENNSYLVANIA

CITY           SKY/WX    TMP DP  RH WIND       PRES   REMARKS
BRADFORD       CLOUDY    35  29  78 W7        30.05R
DUBOIS           N/A    N/A N/A N/A MISG      30.07S
CLEARFIELD     CLOUDY    39  33  79 W10G18    30.09R
JOHNSTOWN      CLOUDY    39  36  89 W14       30.08R
ALTOONA        CLOUDY    44  36  73 W8        30.10R
STATE COLLEGE  CLOUDY    40  32  71 W9G17     30.09S
WILLIAMSPORT   FAIR      26  24  92 CALM      30.10R
SELINSGROVE    FAIR      24  22  91 CALM      30.11R
FT INDIANTOWN  FAIR      28  28 100 CALM      30.09R
CAPITAL CITY   FAIR      29  27  92 CALM      30.11R
HARRISBURG     FAIR      27  26  96 CALM      30.10R
YORK           FAIR      27  26  96 CALM      30.10R
$$

PAZ038>040-043-044-047-048-054-055-060>062-067>071-210800-
EASTERN PENNSYLVANIA

CITY           SKY/WX    TMP DP  RH WIND       PRES   REMARKS
SCRANTON       FAIR      36  27  69 SW5       30.07R
MOUNT POCONO   FAIR      34  27  75 W15       30.01R
ALLENTOWN      FAIR      32  25  75 SW6       30.08R
QUAKERTOWN*    FAIR      39  28  65 MISG      30.09R
READING        FAIR      33  29  85 CALM      30.09R
LANCASTER      FAIR      30  29  96 CALM      30.10R FOG
COATESVILLE    FAIR      39  32  75 W3        30.10R
POTTSTOWN      FAIR      38  28  67 W3        30.09F
BLUE BELL      FAIR      32  28  86 CALM      30.10S
DOYLESTOWN     FAIR      39  28  64 W3        30.07R
WILLOW GROVE   NOT AVBL
NORTH PHILA    FAIR      37  28  70 CALM      30.10R
PHILADELPHIA   FAIR      33  29  85 CALM      30.11R
$$



USA.gov is the U.S. government's official web portal to all federal, state and local government web resources and services.